GALAXY 16 (G-16)

Last updated on Thu Nov 21 2024 00:02:40 GMT+0000 (Coordinated Universal Time)

1 29236U 06023A 24324.98973303 -.00000125 00000+0 00000+0 0 9997 2 29236 0.0540 112.8851 0002945 134.5881 69.3263 1.00270859 67216
UTC large
Height (km)
Speed (km/s)
/
Latitude / Longitude
Inclination (degrees)
Orbital Period (minutes)
Azimuth
Elevation
Range (km)
Doppler Factor

Next 0 passes for location: London (51.5072 / 0.1276)

Sorry there are no passes over London.